sat.trackr.live / text

‹ back to catalog

STARLINK-5965

NORAD 56915 · 2023-083AR

PAYLOAD ACTIVE UNKNOWN

§ Identity

Operator
Country
US
Launch date
2023-06-12
Launch site
AFETR
Launch vehicle
Mass (kg)
RCS (m²)

Purposes: comms

External: N2YO · Heavens-Above · Gunter

§ Orbital elements

Epoch: 2026-09-20T02:47:41.713728Z

Period
94.27 min
Inclination
43.0021°
Eccentricity
0.0001034
Mean motion
15.27574528 rev/d
Perigee alt
482.4 km
Apogee alt
483.8 km
Semi-major
6,861.2 km
B*
-3.1035e-6
RAAN
52.6220°
Arg perigee
267.1962°
Mean anomaly
92.8771°
Rev number
18,153

§ Raw data

STARLINK-59651 56915U 23083AR  26263.11645502 -.00000347  00000+0 -31035-5 0  99972 56915  43.0021  52.6220 0001034 267.1962  92.8771 15.27574528181534

JSON: /api/v1/satellites/56915 · /tle

For live sub-satellite position, see the globe view (requires WebGL).

§ Visibility from observer

Set your observer location to see the next 7 days of passes ≥ 10°. The values pass through the URL so the page stays shareable.

No JS? Fill the form by hand. The geolocation button needs JavaScript.